Time,TemperatureF,DewpointF,PressureIn,WindDirection,WindDirectionDegrees,WindSpeedMPH,WindSpeedGustMPH,Humidity,HourlyPrecipIn,Conditions,Clouds,dailyrainin,SolarRadiationWatts/m^2,SoftwareType,DateUTC
2013-02-21 00:21:00,65.0,63.0,-100.00,NE,35,4.0,12.0,92,0.00,,,0.04,0.000000,,2013-02-21 10:21:00,
2013-02-21 00:31:00,65.0,63.0,-100.00,NE,35,4.0,12.0,92,0.00,,,0.04,0.000000,,2013-02-21 10:31:00,
2013-02-21 00:41:00,65.0,63.0,-100.00,NE,35,4.0,12.0,92,0.00,,,0.04,0.000000,,2013-02-21 10:41:00,
2013-02-21 00:51:00,65.0,63.0,-100.00,NE,35,4.0,12.0,92,0.00,,,0.04,0.000000,,2013-02-21 10:51:00,
2013-02-21 01:21:00,64.0,62.0,-100.00,NNE,13,5.0,14.0,93,0.00,,,0.04,0.000000,,2013-02-21 11:21:00,
2013-02-21 01:31:00,64.0,62.0,-100.00,NNE,13,5.0,14.0,93,0.00,,,0.04,0.000000,,2013-02-21 11:31:00,
2013-02-21 01:41:00,64.0,62.0,-100.00,NNE,13,5.0,14.0,93,0.00,,,0.04,0.000000,,2013-02-21 11:41:00,
2013-02-21 01:51:00,64.0,62.0,-100.00,NNE,13,5.0,14.0,93,0.00,,,0.04,0.000000,,2013-02-21 11:51:00,
2013-02-21 02:21:00,64.0,63.0,-100.00,North,5,4.0,13.0,95,0.00,,,0.03,0.000000,,2013-02-21 12:21:00,
2013-02-21 02:32:00,64.0,63.0,-100.00,North,5,4.0,13.0,95,0.00,,,0.03,0.000000,,2013-02-21 12:32:00,
2013-02-21 02:42:00,64.0,63.0,-100.00,North,5,4.0,13.0,95,0.00,,,0.03,0.000000,,2013-02-21 12:42:00,
2013-02-21 02:52:00,64.0,63.0,-100.00,North,5,4.0,13.0,95,0.00,,,0.03,0.000000,,2013-02-21 12:52:00,
2013-02-21 03:22:00,66.0,65.0,-100.00,North,356,4.0,16.0,97,0.00,,,0.03,0.000000,,2013-02-21 13:22:00,
2013-02-21 03:32:00,66.0,65.0,-100.00,North,356,4.0,16.0,97,0.00,,,0.03,0.000000,,2013-02-21 13:32:00,
2013-02-21 03:41:00,66.0,65.0,-100.00,North,356,4.0,16.0,97,0.00,,,0.03,0.000000,,2013-02-21 13:41:00,
2013-02-21 03:51:00,66.0,65.0,-100.00,North,356,4.0,16.0,97,0.00,,,0.03,0.000000,,2013-02-21 13:51:00,
2013-02-21 04:21:00,65.0,65.0,-100.00,NW,326,3.0,10.0,99,0.00,,,0.02,0.000000,,2013-02-21 14:21:00,
2013-02-21 04:32:00,65.0,65.0,-100.00,NW,326,3.0,10.0,99,0.00,,,0.02,0.000000,,2013-02-21 14:32:00,
2013-02-21 04:41:00,65.0,65.0,-100.00,NW,326,3.0,10.0,99,0.00,,,0.02,0.000000,,2013-02-21 14:41:00,
2013-02-21 04:52:00,65.0,65.0,-100.00,NW,326,3.0,10.0,99,0.00,,,0.02,0.000000,,2013-02-21 14:52:00,
2013-02-21 05:21:00,63.0,63.0,-100.00,North,9,2.0,7.0,100,0.00,,,0.02,0.000000,,2013-02-21 15:21:00,
2013-02-21 05:31:00,63.0,63.0,-100.00,North,9,2.0,7.0,100,0.00,,,0.02,0.000000,,2013-02-21 15:31:00,
2013-02-21 05:42:00,63.0,63.0,-100.00,North,9,2.0,7.0,100,0.00,,,0.02,0.000000,,2013-02-21 15:42:00,
2013-02-21 05:51:00,63.0,63.0,-100.00,North,9,2.0,7.0,100,0.00,,,0.02,0.000000,,2013-02-21 15:51:00,
2013-02-21 06:21:00,61.0,61.0,-100.00,SSW,193,1.0,6.0,100,0.00,,,0.01,0.000000,,2013-02-21 16:21:00,
2013-02-21 06:31:00,61.0,61.0,-100.00,SSW,193,1.0,6.0,100,0.00,,,0.01,0.000000,,2013-02-21 16:31:00,
2013-02-21 06:42:00,61.0,61.0,-100.00,SSW,193,1.0,6.0,100,0.00,,,0.01,0.000000,,2013-02-21 16:42:00,
2013-02-21 06:51:00,61.0,61.0,-100.00,SSW,193,1.0,6.0,100,0.00,,,0.01,0.000000,,2013-02-21 16:51:00,
2013-02-21 07:21:00,63.0,63.0,-100.00,SW,217,2.0,7.0,100,0.02,,,0.02,0.000000,,2013-02-21 17:21:00,
2013-02-21 07:32:00,63.0,63.0,-100.00,SW,217,2.0,7.0,100,0.02,,,0.02,0.000000,,2013-02-21 17:32:00,
2013-02-21 07:42:00,63.0,63.0,-100.00,SW,217,2.0,7.0,100,0.02,,,0.02,0.000000,,2013-02-21 17:42:00,
2013-02-21 07:52:00,63.0,63.0,-100.00,SW,217,2.0,7.0,100,0.02,,,0.02,0.000000,,2013-02-21 17:52:00,
2013-02-21 08:22:00,65.0,65.0,-100.00,NNW,328,2.0,6.0,100,0.01,,,0.03,24.000000,,2013-02-21 18:22:00,
2013-02-21 08:31:00,65.0,65.0,-100.00,NNW,328,2.0,6.0,100,0.01,,,0.03,24.000000,,2013-02-21 18:31:00,
2013-02-21 08:42:00,65.0,65.0,-100.00,NNW,328,2.0,6.0,100,0.01,,,0.03,24.000000,,2013-02-21 18:42:00,
2013-02-21 08:51:00,65.0,65.0,-100.00,NNW,328,2.0,6.0,100,0.01,,,0.03,24.000000,,2013-02-21 18:51:00,
2013-02-21 09:21:00,64.0,64.0,-100.00,NW,310,3.0,10.0,100,0.02,,,0.05,63.000000,,2013-02-21 19:21:00,
2013-02-21 09:31:00,64.0,64.0,-100.00,NW,310,3.0,10.0,100,0.02,,,0.05,63.000000,,2013-02-21 19:31:00,
2013-02-21 09:41:00,64.0,64.0,-100.00,NW,310,3.0,10.0,100,0.02,,,0.05,63.000000,,2013-02-21 19:41:00,
2013-02-21 09:51:00,64.0,64.0,-100.00,NW,310,3.0,10.0,100,0.02,,,0.05,63.000000,,2013-02-21 19:51:00,
2013-02-21 10:21:00,66.0,66.0,-100.00,NNE,19,3.0,9.0,100,0.07,,,0.12,83.000000,,2013-02-21 20:21:00,
2013-02-21 10:31:00,66.0,66.0,-100.00,NNE,19,3.0,9.0,100,0.07,,,0.12,83.000000,,2013-02-21 20:31:00,
2013-02-21 10:41:00,66.0,66.0,-100.00,NNE,19,3.0,9.0,100,0.07,,,0.12,83.000000,,2013-02-21 20:41:00,
2013-02-21 10:52:00,66.0,66.0,-100.00,NNE,19,3.0,9.0,100,0.07,,,0.12,83.000000,,2013-02-21 20:52:00,
2013-02-21 11:21:00,66.0,66.0,-100.00,NE,40,7.0,18.0,99,0.10,,,0.22,259.000000,,2013-02-21 21:21:00,
2013-02-21 11:31:00,66.0,66.0,-100.00,NE,40,7.0,18.0,99,0.10,,,0.22,259.000000,,2013-02-21 21:31:00,
2013-02-21 11:42:00,66.0,66.0,-100.00,NE,40,7.0,18.0,99,0.10,,,0.22,259.000000,,2013-02-21 21:42:00,
2013-02-21 11:51:00,66.0,66.0,-100.00,NE,40,7.0,18.0,99,0.10,,,0.22,259.000000,,2013-02-21 21:51:00,
2013-02-21 12:21:00,66.0,66.0,-100.00,NE,48,6.0,14.0,100,0.02,,,0.24,172.000000,,2013-02-21 22:21:00,
2013-02-21 12:31:00,66.0,66.0,-100.00,NE,48,6.0,14.0,100,0.02,,,0.24,172.000000,,2013-02-21 22:31:00,
2013-02-21 12:41:00,66.0,66.0,-100.00,NE,48,6.0,14.0,100,0.02,,,0.24,172.000000,,2013-02-21 22:41:00,
2013-02-21 12:52:00,66.0,66.0,-100.00,NE,48,6.0,14.0,100,0.02,,,0.24,172.000000,,2013-02-21 22:52:00,
2013-02-21 13:21:00,68.0,68.0,-100.00,ENE,59,4.0,13.0,100,0.02,,,0.26,249.000000,,2013-02-21 23:21:00,
2013-02-21 13:31:00,68.0,68.0,-100.00,ENE,59,4.0,13.0,100,0.02,,,0.26,249.000000,,2013-02-21 23:31:00,
2013-02-21 13:41:00,68.0,68.0,-100.00,ENE,59,4.0,13.0,100,0.02,,,0.26,249.000000,,2013-02-21 23:41:00,
2013-02-21 13:52:00,68.0,68.0,-100.00,ENE,59,4.0,13.0,100,0.02,,,0.26,249.000000,,2013-02-21 23:52:00,
2013-02-21 14:21:00,66.0,66.0,-100.00,ENE,68,5.0,12.0,100,0.43,,,0.69,68.000000,,2013-02-22 00:21:00,
2013-02-21 14:31:00,66.0,66.0,-100.00,ENE,68,5.0,12.0,100,0.43,,,0.69,68.000000,,2013-02-22 00:31:00,
2013-02-21 14:41:00,66.0,66.0,-100.00,ENE,68,5.0,12.0,100,0.43,,,0.69,68.000000,,2013-02-22 00:41:00,
2013-02-21 14:51:00,66.0,66.0,-100.00,ENE,68,5.0,12.0,100,0.43,,,0.69,68.000000,,2013-02-22 00:51:00,
2013-02-21 15:21:00,69.0,69.0,-100.00,NE,40,5.0,15.0,100,0.07,,,-99.99,190.000000,,2013-02-22 01:21:00,
2013-02-21 15:32:00,69.0,69.0,-100.00,NE,40,5.0,15.0,100,0.07,,,-99.99,190.000000,,2013-02-22 01:32:00,
2013-02-21 15:42:00,69.0,69.0,-100.00,NE,40,5.0,15.0,100,0.07,,,-99.99,190.000000,,2013-02-22 01:42:00,
2013-02-21 15:51:00,69.0,69.0,-100.00,NE,40,5.0,15.0,100,0.07,,,-99.99,190.000000,,2013-02-22 01:51:00,
2013-02-21 16:21:00,67.0,67.0,-100.00,NE,50,3.0,13.0,100,0.05,,,0.81,74.000000,,2013-02-22 02:21:00,
2013-02-21 16:31:00,67.0,67.0,-100.00,NE,50,3.0,13.0,100,0.05,,,0.81,74.000000,,2013-02-22 02:31:00,
2013-02-21 16:42:00,67.0,67.0,-100.00,NE,50,3.0,13.0,100,0.05,,,0.81,74.000000,,2013-02-22 02:42:00,
2013-02-21 16:52:00,67.0,67.0,-100.00,NE,50,3.0,13.0,100,0.05,,,0.81,74.000000,,2013-02-22 02:52:00,
2013-02-21 17:21:00,66.0,66.0,-100.00,NNE,17,4.0,10.0,100,0.00,,,0.81,73.000000,,2013-02-22 03:21:00,
2013-02-21 17:31:00,66.0,66.0,-100.00,NNE,17,4.0,10.0,100,0.00,,,0.81,73.000000,,2013-02-22 03:31:00,
2013-02-21 17:41:00,66.0,66.0,-100.00,NNE,17,4.0,10.0,100,0.00,,,0.81,73.000000,,2013-02-22 03:41:00,
2013-02-21 17:51:00,66.0,66.0,-100.00,NNE,17,4.0,10.0,100,0.00,,,0.81,73.000000,,2013-02-22 03:51:00,
2013-02-21 18:11:00,67.0,67.0,-100.00,NNE,29,4.0,11.0,100,0.00,,,0.81,28.000000,,2013-02-22 04:11:00,
2013-02-21 18:21:00,67.0,67.0,-100.00,NNE,29,4.0,11.0,100,0.00,,,0.81,28.000000,,2013-02-22 04:21:00,
2013-02-21 18:32:00,67.0,67.0,-100.00,NNE,29,4.0,11.0,100,0.00,,,0.81,28.000000,,2013-02-22 04:32:00,
2013-02-21 18:42:00,67.0,67.0,-100.00,NNE,29,4.0,11.0,100,0.00,,,0.81,28.000000,,2013-02-22 04:42:00,
2013-02-21 18:51:00,67.0,67.0,-100.00,NNE,29,4.0,11.0,100,0.00,,,0.81,28.000000,,2013-02-22 04:51:00,
2013-02-21 19:22:00,65.0,65.0,-100.00,North,352,3.0,12.0,100,0.00,,,0.81,5.000000,,2013-02-22 05:22:00,
2013-02-21 19:32:00,65.0,65.0,-100.00,North,352,3.0,12.0,100,0.00,,,0.81,5.000000,,2013-02-22 05:32:00,
2013-02-21 19:41:00,65.0,65.0,-100.00,North,352,3.0,12.0,100,0.00,,,0.81,5.000000,,2013-02-22 05:41:00,
2013-02-21 19:52:00,65.0,65.0,-100.00,North,352,3.0,12.0,100,0.00,,,0.81,5.000000,,2013-02-22 05:52:00,
2013-02-21 20:21:00,67.0,67.0,-100.00,NNE,12,4.0,11.0,100,0.00,,,0.81,0.000000,,2013-02-22 06:21:00,
2013-02-21 20:31:00,67.0,67.0,-100.00,NNE,12,4.0,11.0,100,0.00,,,0.81,0.000000,,2013-02-22 06:31:00,
2013-02-21 20:42:00,67.0,67.0,-100.00,NNE,12,4.0,11.0,100,0.00,,,0.81,0.000000,,2013-02-22 06:42:00,
2013-02-21 20:51:00,67.0,67.0,-100.00,NNE,12,4.0,11.0,100,0.00,,,0.81,0.000000,,2013-02-22 06:51:00,
2013-02-21 21:21:00,65.0,65.0,-100.00,NNE,32,3.0,17.0,100,0.00,,,0.81,0.000000,,2013-02-22 07:21:00,
2013-02-21 21:31:00,65.0,65.0,-100.00,NNE,32,3.0,17.0,100,0.00,,,0.81,0.000000,,2013-02-22 07:31:00,
2013-02-21 21:42:00,65.0,65.0,-100.00,NNE,32,3.0,17.0,100,0.00,,,0.81,0.000000,,2013-02-22 07:42:00,
2013-02-21 21:51:00,65.0,65.0,-100.00,NNE,32,3.0,17.0,100,0.00,,,0.81,0.000000,,2013-02-22 07:51:00,
2013-02-21 22:21:00,66.0,66.0,-100.00,NNE,20,4.0,9.0,100,0.00,,,0.81,0.000000,,2013-02-22 08:21:00,
2013-02-21 22:31:00,66.0,66.0,-100.00,NNE,20,4.0,9.0,100,0.00,,,0.81,0.000000,,2013-02-22 08:31:00,
2013-02-21 22:41:00,66.0,66.0,-100.00,NNE,20,4.0,9.0,100,0.00,,,0.81,0.000000,,2013-02-22 08:41:00,
2013-02-21 22:52:00,66.0,66.0,-100.00,NNE,20,4.0,9.0,100,0.00,,,0.81,0.000000,,2013-02-22 08:52:00,
2013-02-21 23:21:00,66.0,66.0,-100.00,North,359,3.0,12.0,100,0.07,,,0.88,0.000000,,2013-02-22 09:21:00,
2013-02-21 23:31:00,66.0,66.0,-100.00,North,359,3.0,12.0,100,0.07,,,0.88,0.000000,,2013-02-22 09:31:00,
2013-02-21 23:41:00,66.0,66.0,-100.00,North,359,3.0,12.0,100,0.07,,,0.88,0.000000,,2013-02-22 09:41:00,
2013-02-21 23:51:00,66.0,66.0,-100.00,North,359,3.0,12.0,100,0.07,,,0.88,0.000000,,2013-02-22 09:51:00,